owner,sensor,date,latitude,longitude,vertical_datum,wind_speed,wind_to_direction,wind_speed_of_gust,qcFlag 
TCOON,ioos:station:TCOON:068:1,2017-04-01T00:00:00Z,27.2970,-97.4049,0.0,8.3,-9999.0,11.3,'11111222,99999999,11111222' 
TCOON,ioos:station:TCOON:068:1,2017-04-01T00:06:00Z,27.2970,-97.4049,0.0,8.3,-9999.0,11.2,'11111222,99999999,11111222' 
TCOON,ioos:station:TCOON:068:1,2017-04-01T00:12:00Z,27.2970,-97.4049,0.0,8.5,-9999.0,10.7,'11111222,99999999,11111222' 
TCOON,ioos:station:TCOON:068:1,2017-04-01T00:18:00Z,27.2970,-97.4049,0.0,8.5,94.0,10.7,'1111122,1111122,1111122' 
TCOON,ioos:station:TCOON:068:1,2017-04-01T00:24:00Z,27.2970,-97.4049,0.0,8.3,-9999.0,10.4,'11111222,99999999,11111222' 
TCOON,ioos:station:TCOON:068:1,2017-04-01T00:30:00Z,27.2970,-97.4049,0.0,7.8,-9999.0,10.1,'11111222,99999999,11111222' 
TCOON,ioos:station:TCOON:068:1,2017-04-01T00:36:00Z,27.2970,-97.4049,0.0,8.2,-9999.0,10.3,'11111222,99999999,11111222' 
TCOON,ioos:station:TCOON:068:1,2017-04-01T00:42:00Z,27.2970,-97.4049,0.0,8.2,-9999.0,10.6,'11111222,99999999,11111222' 
TCOON,ioos:station:TCOON:068:1,2017-04-01T00:48:00Z,27.2970,-97.4049,0.0,8.0,-9999.0,10.4,'11111222,99999999,11111222' 
TCOON,ioos:station:TCOON:068:1,2017-04-01T00:54:00Z,27.2970,-97.4049,0.0,7.5,-9999.0,9.4,'11111222,99999999,11111222' 
TCOON,ioos:station:TCOON:068:1,2017-04-01T01:00:00Z,27.2970,-97.4049,0.0,7.5,-9999.0,9.4,'11111222,99999999,11111222' 
TCOON,ioos:station:TCOON:068:1,2017-04-01T01:06:00Z,27.2970,-97.4049,0.0,7.6,-9999.0,9.4,'11111222,99999999,11111222' 
TCOON,ioos:station:TCOON:068:1,2017-04-01T01:12:00Z,27.2970,-97.4049,0.0,7.7,-9999.0,9.5,'11111222,99999999,11111222' 
TCOON,ioos:station:TCOON:068:1,2017-04-01T01:18:00Z,27.2970,-97.4049,0.0,7.8,-9999.0,9.7,'11111222,99999999,11111222' 
TCOON,ioos:station:TCOON:068:1,2017-04-01T01:24:00Z,27.2970,-97.4049,0.0,7.8,100.0,9.7,'1111122,1111122,1111122' 
TCOON,ioos:station:TCOON:068:1,2017-04-01T01:30:00Z,27.2970,-97.4049,0.0,8.7,-9999.0,10.0,'11111222,99999999,11111222' 
TCOON,ioos:station:TCOON:068:1,2017-04-01T01:36:00Z,27.2970,-97.4049,0.0,8.1,-9999.0,10.4,'11111222,99999999,11111222' 
TCOON,ioos:station:TCOON:068:1,2017-04-01T01:42:00Z,27.2970,-97.4049,0.0,7.8,-9999.0,11.0,'11111222,99999999,11111222' 
TCOON,ioos:station:TCOON:068:1,2017-04-01T01:48:00Z,27.2970,-97.4049,0.0,8.3,-9999.0,10.5,'11111222,99999999,11111222' 
TCOON,ioos:station:TCOON:068:1,2017-04-01T01:54:00Z,27.2970,-97.4049,0.0,8.1,-9999.0,9.9,'11111222,99999999,11111222' 
TCOON,ioos:station:TCOON:068:1,2017-04-01T02:00:00Z,27.2970,-97.4049,0.0,7.4,-9999.0,10.2,'11111222,99999999,11111222' 
TCOON,ioos:station:TCOON:068:1,2017-04-01T02:06:00Z,27.2970,-97.4049,0.0,8.0,-9999.0,9.8,'11111222,99999999,11111222' 
TCOON,ioos:station:TCOON:068:1,2017-04-01T02:12:00Z,27.2970,-97.4049,0.0,7.2,-9999.0,9.7,'11111222,99999999,11111222' 
TCOON,ioos:station:TCOON:068:1,2017-04-01T02:18:00Z,27.2970,-97.4049,0.0,7.2,97.0,9.7,'1111122,1111122,1111122' 
TCOON,ioos:station:TCOON:068:1,2017-04-01T02:24:00Z,27.2970,-97.4049,0.0,7.7,-9999.0,11.2,'11111222,99999999,11111222' 
TCOON,ioos:station:TCOON:068:1,2017-04-01T02:30:00Z,27.2970,-97.4049,0.0,7.4,-9999.0,9.5,'11111222,99999999,11111222' 
TCOON,ioos:station:TCOON:068:1,2017-04-01T02:36:00Z,27.2970,-97.4049,0.0,7.7,-9999.0,9.4,'11111222,99999999,11111222' 
TCOON,ioos:station:TCOON:068:1,2017-04-01T02:42:00Z,27.2970,-97.4049,0.0,7.1,-9999.0,9.0,'11111222,99999999,11111222' 
TCOON,ioos:station:TCOON:068:1,2017-04-01T02:48:00Z,27.2970,-97.4049,0.0,7.0,-9999.0,8.8,'11111222,99999999,11111222' 
TCOON,ioos:station:TCOON:068:1,2017-04-01T02:54:00Z,27.2970,-97.4049,0.0,7.0,-9999.0,8.5,'11111222,99999999,11111222' 
TCOON,ioos:station:TCOON:068:1,2017-04-01T03:00:00Z,27.2970,-97.4049,0.0,7.8,-9999.0,9.4,'11111222,99999999,11111222' 
TCOON,ioos:station:TCOON:068:1,2017-04-01T03:06:00Z,27.2970,-97.4049,0.0,8.2,-9999.0,9.9,'11111222,99999999,11111222' 
TCOON,ioos:station:TCOON:068:1,2017-04-01T03:12:00Z,27.2970,-97.4049,0.0,7.2,-9999.0,9.5,'11111222,99999999,11111222' 
TCOON,ioos:station:TCOON:068:1,2017-04-01T03:18:00Z,27.2970,-97.4049,0.0,7.2,97.0,9.5,'1111122,1111122,1111122' 
TCOON,ioos:station:TCOON:068:1,2017-04-01T03:24:00Z,27.2970,-97.4049,0.0,7.2,-9999.0,9.7,'11111222,99999999,11111222' 
TCOON,ioos:station:TCOON:068:1,2017-04-01T03:30:00Z,27.2970,-97.4049,0.0,8.1,-9999.0,10.5,'11111222,99999999,11111222' 
TCOON,ioos:station:TCOON:068:1,2017-04-01T03:36:00Z,27.2970,-97.4049,0.0,7.9,-9999.0,10.4,'11111222,99999999,11111222' 
TCOON,ioos:station:TCOON:068:1,2017-04-01T03:42:00Z,27.2970,-97.4049,0.0,7.5,-9999.0,10.2,'11111222,99999999,11111222' 
TCOON,ioos:station:TCOON:068:1,2017-04-01T03:48:00Z,27.2970,-97.4049,0.0,7.7,-9999.0,9.0,'11111222,99999999,11111222' 
TCOON,ioos:station:TCOON:068:1,2017-04-01T03:54:00Z,27.2970,-97.4049,0.0,8.1,-9999.0,10.1,'11111222,99999999,11111222' 
TCOON,ioos:station:TCOON:068:1,2017-04-01T04:00:00Z,27.2970,-97.4049,0.0,7.4,-9999.0,9.2,'11111222,99999999,11111222' 
TCOON,ioos:station:TCOON:068:1,2017-04-01T04:06:00Z,27.2970,-97.4049,0.0,8.2,-9999.0,10.0,'11111222,99999999,11111222' 
TCOON,ioos:station:TCOON:068:1,2017-04-01T04:12:00Z,27.2970,-97.4049,0.0,7.8,-9999.0,9.7,'11111222,99999999,11111222' 
TCOON,ioos:station:TCOON:068:1,2017-04-01T04:18:00Z,27.2970,-97.4049,0.0,7.8,102.0,9.7,'1111122,1111122,1111122' 
TCOON,ioos:station:TCOON:068:1,2017-04-01T04:24:00Z,27.2970,-97.4049,0.0,7.4,-9999.0,10.3,'11111222,99999999,11111222' 
TCOON,ioos:station:TCOON:068:1,2017-04-01T04:30:00Z,27.2970,-97.4049,0.0,8.4,-9999.0,10.5,'11111222,99999999,11111222' 
TCOON,ioos:station:TCOON:068:1,2017-04-01T04:36:00Z,27.2970,-97.4049,0.0,8.5,-9999.0,10.3,'11111222,99999999,11111222' 
TCOON,ioos:station:TCOON:068:1,2017-04-01T04:42:00Z,27.2970,-97.4049,0.0,7.7,-9999.0,9.5,'11111222,99999999,11111222' 
TCOON,ioos:station:TCOON:068:1,2017-04-01T04:48:00Z,27.2970,-97.4049,0.0,7.8,-9999.0,10.1,'11111222,99999999,11111222' 
TCOON,ioos:station:TCOON:068:1,2017-04-01T04:54:00Z,27.2970,-97.4049,0.0,7.1,-9999.0,9.7,'11111222,99999999,11111222' 
TCOON,ioos:station:TCOON:068:1,2017-04-01T05:00:00Z,27.2970,-97.4049,0.0,7.3,-9999.0,9.8,'11111222,99999999,11111222' 
TCOON,ioos:station:TCOON:068:1,2017-04-01T05:06:00Z,27.2970,-97.4049,0.0,7.9,-9999.0,9.3,'11111222,99999999,11111222' 
TCOON,ioos:station:TCOON:068:1,2017-04-01T05:12:00Z,27.2970,-97.4049,0.0,7.5,-9999.0,9.6,'11111222,99999999,11111222' 
TCOON,ioos:station:TCOON:068:1,2017-04-01T05:18:00Z,27.2970,-97.4049,0.0,7.5,100.0,9.6,'1111122,1111122,1111122' 
TCOON,ioos:station:TCOON:068:1,2017-04-01T05:24:00Z,27.2970,-97.4049,0.0,7.9,-9999.0,10.0,'11111222,99999999,11111222' 
TCOON,ioos:station:TCOON:068:1,2017-04-01T05:30:00Z,27.2970,-97.4049,0.0,8.4,-9999.0,10.3,'11111222,99999999,11111222' 
TCOON,ioos:station:TCOON:068:1,2017-04-01T05:36:00Z,27.2970,-97.4049,0.0,8.1,-9999.0,10.2,'11111222,99999999,11111222' 
TCOON,ioos:station:TCOON:068:1,2017-04-01T05:42:00Z,27.2970,-97.4049,0.0,8.8,-9999.0,11.0,'11111222,99999999,11111222' 
TCOON,ioos:station:TCOON:068:1,2017-04-01T05:48:00Z,27.2970,-97.4049,0.0,8.6,-9999.0,10.8,'11111222,99999999,11111222' 
TCOON,ioos:station:TCOON:068:1,2017-04-01T05:54:00Z,27.2970,-97.4049,0.0,7.8,-9999.0,9.9,'11111222,99999999,11111222' 
TCOON,ioos:station:TCOON:068:1,2017-04-01T06:00:00Z,27.2970,-97.4049,0.0,7.6,-9999.0,9.5,'11111222,99999999,11111222' 
TCOON,ioos:station:TCOON:068:1,2017-04-01T06:06:00Z,27.2970,-97.4049,0.0,8.3,-9999.0,10.3,'11111222,99999999,11111222' 
TCOON,ioos:station:TCOON:068:1,2017-04-01T06:12:00Z,27.2970,-97.4049,0.0,8.6,-9999.0,10.5,'11111222,99999999,11111222' 
TCOON,ioos:station:TCOON:068:1,2017-04-01T06:18:00Z,27.2970,-97.4049,0.0,8.6,100.0,10.5,'1111122,1111122,1111122' 
TCOON,ioos:station:TCOON:068:1,2017-04-01T06:24:00Z,27.2970,-97.4049,0.0,7.9,-9999.0,10.8,'11111222,99999999,11111222' 
TCOON,ioos:station:TCOON:068:1,2017-04-01T06:30:00Z,27.2970,-97.4049,0.0,7.7,-9999.0,10.1,'11111222,99999999,11111222' 
TCOON,ioos:station:TCOON:068:1,2017-04-01T06:36:00Z,27.2970,-97.4049,0.0,7.8,-9999.0,10.0,'11111222,99999999,11111222' 
TCOON,ioos:station:TCOON:068:1,2017-04-01T06:42:00Z,27.2970,-97.4049,0.0,8.2,-9999.0,10.2,'11111222,99999999,11111222' 
TCOON,ioos:station:TCOON:068:1,2017-04-01T06:48:00Z,27.2970,-97.4049,0.0,7.5,-9999.0,9.7,'11111222,99999999,11111222' 
TCOON,ioos:station:TCOON:068:1,2017-04-01T06:54:00Z,27.2970,-97.4049,0.0,8.3,-9999.0,10.2,'11111222,99999999,11111222' 
TCOON,ioos:station:TCOON:068:1,2017-04-01T07:00:00Z,27.2970,-97.4049,0.0,8.9,-9999.0,11.4,'11111222,99999999,11111222' 
TCOON,ioos:station:TCOON:068:1,2017-04-01T07:06:00Z,27.2970,-97.4049,0.0,7.5,-9999.0,10.2,'11111222,99999999,11111222' 
TCOON,ioos:station:TCOON:068:1,2017-04-01T07:12:00Z,27.2970,-97.4049,0.0,8.0,-9999.0,10.1,'11111222,99999999,11111222' 
TCOON,ioos:station:TCOON:068:1,2017-04-01T07:18:00Z,27.2970,-97.4049,0.0,8.0,100.0,10.1,'1111122,1111122,1111122' 
TCOON,ioos:station:TCOON:068:1,2017-04-01T07:24:00Z,27.2970,-97.4049,0.0,8.2,-9999.0,9.7,'11111222,99999999,11111222' 
TCOON,ioos:station:TCOON:068:1,2017-04-01T07:30:00Z,27.2970,-97.4049,0.0,7.7,-9999.0,10.2,'11111222,99999999,11111222' 
TCOON,ioos:station:TCOON:068:1,2017-04-01T07:36:00Z,27.2970,-97.4049,0.0,7.8,-9999.0,10.0,'11111222,99999999,11111222' 
TCOON,ioos:station:TCOON:068:1,2017-04-01T07:42:00Z,27.2970,-97.4049,0.0,7.6,-9999.0,10.1,'11111222,99999999,11111222' 
TCOON,ioos:station:TCOON:068:1,2017-04-01T07:48:00Z,27.2970,-97.4049,0.0,8.2,-9999.0,10.7,'11111222,99999999,11111222' 
TCOON,ioos:station:TCOON:068:1,2017-04-01T07:54:00Z,27.2970,-97.4049,0.0,7.6,-9999.0,10.1,'11111222,99999999,11111222' 
TCOON,ioos:station:TCOON:068:1,2017-04-01T08:00:00Z,27.2970,-97.4049,0.0,7.7,-9999.0,10.6,'11111222,99999999,11111222' 
TCOON,ioos:station:TCOON:068:1,2017-04-01T08:06:00Z,27.2970,-97.4049,0.0,7.9,-9999.0,10.1,'11111222,99999999,11111222' 
TCOON,ioos:station:TCOON:068:1,2017-04-01T08:12:00Z,27.2970,-97.4049,0.0,7.9,-9999.0,10.0,'11111222,99999999,11111222' 
TCOON,ioos:station:TCOON:068:1,2017-04-01T08:18:00Z,27.2970,-97.4049,0.0,7.9,-9999.0,9.7,'11111222,99999999,11111222' 
TCOON,ioos:station:TCOON:068:1,2017-04-01T08:24:00Z,27.2970,-97.4049,0.0,7.9,107.0,9.7,'1111122,1111122,1111122' 
TCOON,ioos:station:TCOON:068:1,2017-04-01T08:30:00Z,27.2970,-97.4049,0.0,7.5,-9999.0,9.7,'11111222,99999999,11111222' 
TCOON,ioos:station:TCOON:068:1,2017-04-01T08:36:00Z,27.2970,-97.4049,0.0,7.7,-9999.0,9.6,'11111222,99999999,11111222' 
TCOON,ioos:station:TCOON:068:1,2017-04-01T08:42:00Z,27.2970,-97.4049,0.0,8.1,-9999.0,9.4,'11111222,99999999,11111222' 
TCOON,ioos:station:TCOON:068:1,2017-04-01T08:48:00Z,27.2970,-97.4049,0.0,6.8,-9999.0,8.7,'11111222,99999999,11111222' 
TCOON,ioos:station:TCOON:068:1,2017-04-01T08:54:00Z,27.2970,-97.4049,0.0,7.3,-9999.0,9.1,'11111222,99999999,11111222' 
TCOON,ioos:station:TCOON:068:1,2017-04-01T09:00:00Z,27.2970,-97.4049,0.0,8.1,-9999.0,9.6,'11111222,99999999,11111222' 
TCOON,ioos:station:TCOON:068:1,2017-04-01T09:06:00Z,27.2970,-97.4049,0.0,7.4,-9999.0,9.5,'11111222,99999999,11111222' 
TCOON,ioos:station:TCOON:068:1,2017-04-01T09:12:00Z,27.2970,-97.4049,0.0,8.2,-9999.0,10.2,'11111222,99999999,11111222' 
TCOON,ioos:station:TCOON:068:1,2017-04-01T09:18:00Z,27.2970,-97.4049,0.0,8.2,100.0,10.2,'1111122,1111122,1111122' 
TCOON,ioos:station:TCOON:068:1,2017-04-01T09:24:00Z,27.2970,-97.4049,0.0,7.3,-9999.0,9.6,'11111222,99999999,11111222' 
TCOON,ioos:station:TCOON:068:1,2017-04-01T09:30:00Z,27.2970,-97.4049,0.0,7.5,-9999.0,9.6,'11111222,99999999,11111222' 
TCOON,ioos:station:TCOON:068:1,2017-04-01T09:36:00Z,27.2970,-97.4049,0.0,7.1,-9999.0,9.9,'11111222,99999999,11111222' 
TCOON,ioos:station:TCOON:068:1,2017-04-01T09:42:00Z,27.2970,-97.4049,0.0,8.1,-9999.0,10.3,'11111222,99999999,11111222' 
TCOON,ioos:station:TCOON:068:1,2017-04-01T09:48:00Z,27.2970,-97.4049,0.0,7.7,-9999.0,9.8,'11111222,99999999,11111222' 
TCOON,ioos:station:TCOON:068:1,2017-04-01T09:54:00Z,27.2970,-97.4049,0.0,7.5,-9999.0,10.4,'11111222,99999999,11111222' 
TCOON,ioos:station:TCOON:068:1,2017-04-01T10:00:00Z,27.2970,-97.4049,0.0,7.6,-9999.0,9.9,'11111222,99999999,11111222' 
TCOON,ioos:station:TCOON:068:1,2017-04-01T10:06:00Z,27.2970,-97.4049,0.0,7.0,-9999.0,9.4,'11111222,99999999,11111222' 
TCOON,ioos:station:TCOON:068:1,2017-04-01T10:12:00Z,27.2970,-97.4049,0.0,6.8,-9999.0,8.9,'11111222,99999999,11111222' 
TCOON,ioos:station:TCOON:068:1,2017-04-01T10:18:00Z,27.2970,-97.4049,0.0,6.8,94.0,8.9,'1111122,1111122,1111122' 
TCOON,ioos:station:TCOON:068:1,2017-04-01T10:24:00Z,27.2970,-97.4049,0.0,6.8,-9999.0,9.1,'11111222,99999999,11111222' 
TCOON,ioos:station:TCOON:068:1,2017-04-01T10:30:00Z,27.2970,-97.4049,0.0,6.2,-9999.0,9.6,'11111222,99999999,11111222' 
TCOON,ioos:station:TCOON:068:1,2017-04-01T10:36:00Z,27.2970,-97.4049,0.0,6.8,-9999.0,8.4,'11111222,99999999,11111222' 
TCOON,ioos:station:TCOON:068:1,2017-04-01T10:42:00Z,27.2970,-97.4049,0.0,5.8,-9999.0,8.3,'11111222,99999999,11111222' 
TCOON,ioos:station:TCOON:068:1,2017-04-01T10:48:00Z,27.2970,-97.4049,0.0,6.5,-9999.0,8.5,'11111222,99999999,11111222' 
TCOON,ioos:station:TCOON:068:1,2017-04-01T10:54:00Z,27.2970,-97.4049,0.0,6.5,-9999.0,8.5,'11111222,99999999,11111222' 
TCOON,ioos:station:TCOON:068:1,2017-04-01T11:00:00Z,27.2970,-97.4049,0.0,7.7,-9999.0,9.9,'11111222,99999999,11111222' 
TCOON,ioos:station:TCOON:068:1,2017-04-01T11:06:00Z,27.2970,-97.4049,0.0,8.0,-9999.0,9.9,'11111222,99999999,11111222' 
TCOON,ioos:station:TCOON:068:1,2017-04-01T11:12:00Z,27.2970,-97.4049,0.0,8.3,-9999.0,10.3,'11111222,99999999,11111222' 
TCOON,ioos:station:TCOON:068:1,2017-04-01T11:18:00Z,27.2970,-97.4049,0.0,8.3,96.0,10.3,'1111122,1111122,1111122' 
TCOON,ioos:station:TCOON:068:1,2017-04-01T11:24:00Z,27.2970,-97.4049,0.0,8.3,-9999.0,10.5,'11111222,99999999,11111222' 
TCOON,ioos:station:TCOON:068:1,2017-04-01T11:30:00Z,27.2970,-97.4049,0.0,8.2,-9999.0,9.8,'11111222,99999999,11111222' 
TCOON,ioos:station:TCOON:068:1,2017-04-01T11:36:00Z,27.2970,-97.4049,0.0,7.9,-9999.0,9.8,'11111222,99999999,11111222' 
TCOON,ioos:station:TCOON:068:1,2017-04-01T11:42:00Z,27.2970,-97.4049,0.0,8.0,-9999.0,10.1,'11111222,99999999,11111222' 
TCOON,ioos:station:TCOON:068:1,2017-04-01T11:48:00Z,27.2970,-97.4049,0.0,8.6,-9999.0,10.9,'11111222,99999999,11111222' 
TCOON,ioos:station:TCOON:068:1,2017-04-01T11:54:00Z,27.2970,-97.4049,0.0,9.3,-9999.0,11.5,'11111222,99999999,11111222' 
TCOON,ioos:station:TCOON:068:1,2017-04-01T12:00:00Z,27.2970,-97.4049,0.0,9.0,-9999.0,12.2,'11111222,99999999,11111222' 
TCOON,ioos:station:TCOON:068:1,2017-04-01T12:06:00Z,27.2970,-97.4049,0.0,9.3,-9999.0,11.4,'11111222,99999999,11111222' 
TCOON,ioos:station:TCOON:068:1,2017-04-01T12:12:00Z,27.2970,-97.4049,0.0,9.2,-9999.0,11.6,'11111222,99999999,11111222' 
TCOON,ioos:station:TCOON:068:1,2017-04-01T12:18:00Z,27.2970,-97.4049,0.0,9.2,88.0,11.6,'1111122,1111122,1111122' 
TCOON,ioos:station:TCOON:068:1,2017-04-01T12:24:00Z,27.2970,-97.4049,0.0,8.6,-9999.0,11.0,'11111222,99999999,11111222' 
TCOON,ioos:station:TCOON:068:1,2017-04-01T12:30:00Z,27.2970,-97.4049,0.0,8.1,-9999.0,10.8,'11111222,99999999,11111222' 
TCOON,ioos:station:TCOON:068:1,2017-04-01T12:36:00Z,27.2970,-97.4049,0.0,7.7,-9999.0,10.7,'11111222,99999999,11111222' 
TCOON,ioos:station:TCOON:068:1,2017-04-01T12:42:00Z,27.2970,-97.4049,0.0,8.2,-9999.0,10.7,'11111222,99999999,11111222' 
TCOON,ioos:station:TCOON:068:1,2017-04-01T12:48:00Z,27.2970,-97.4049,0.0,7.9,-9999.0,10.6,'11111222,99999999,11111222' 
TCOON,ioos:station:TCOON:068:1,2017-04-01T12:54:00Z,27.2970,-97.4049,0.0,8.5,-9999.0,10.3,'11111222,99999999,11111222' 
TCOON,ioos:station:TCOON:068:1,2017-04-01T13:00:00Z,27.2970,-97.4049,0.0,8.6,-9999.0,10.5,'11111222,99999999,11111222' 
TCOON,ioos:station:TCOON:068:1,2017-04-01T13:06:00Z,27.2970,-97.4049,0.0,8.2,-9999.0,9.9,'11111222,99999999,11111222' 
TCOON,ioos:station:TCOON:068:1,2017-04-01T13:12:00Z,27.2970,-97.4049,0.0,8.2,-9999.0,10.0,'11111222,99999999,11111222' 
TCOON,ioos:station:TCOON:068:1,2017-04-01T13:18:00Z,27.2970,-97.4049,0.0,8.2,97.0,10.0,'1111122,1111122,1111122' 
TCOON,ioos:station:TCOON:068:1,2017-04-01T13:24:00Z,27.2970,-97.4049,0.0,8.9,-9999.0,10.7,'11111222,99999999,11111222' 
TCOON,ioos:station:TCOON:068:1,2017-04-01T13:30:00Z,27.2970,-97.4049,0.0,8.9,-9999.0,11.3,'11111222,99999999,11111222' 
TCOON,ioos:station:TCOON:068:1,2017-04-01T13:36:00Z,27.2970,-97.4049,0.0,8.8,-9999.0,11.0,'11111222,99999999,11111222' 
TCOON,ioos:station:TCOON:068:1,2017-04-01T13:42:00Z,27.2970,-97.4049,0.0,8.7,-9999.0,11.0,'11111222,99999999,11111222' 
TCOON,ioos:station:TCOON:068:1,2017-04-01T13:48:00Z,27.2970,-97.4049,0.0,8.3,-9999.0,11.2,'11111222,99999999,11111222' 
TCOON,ioos:station:TCOON:068:1,2017-04-01T13:54:00Z,27.2970,-97.4049,0.0,8.4,-9999.0,10.5,'11111222,99999999,11111222' 
TCOON,ioos:station:TCOON:068:1,2017-04-01T14:00:00Z,27.2970,-97.4049,0.0,9.0,-9999.0,10.8,'11111222,99999999,11111222' 
TCOON,ioos:station:TCOON:068:1,2017-04-01T14:06:00Z,27.2970,-97.4049,0.0,8.4,-9999.0,11.3,'11111222,99999999,11111222' 
TCOON,ioos:station:TCOON:068:1,2017-04-01T14:12:00Z,27.2970,-97.4049,0.0,8.4,-9999.0,10.2,'11111222,99999999,11111222' 
TCOON,ioos:station:TCOON:068:1,2017-04-01T14:18:00Z,27.2970,-97.4049,0.0,8.4,100.0,10.2,'1111122,1111122,1111122' 
TCOON,ioos:station:TCOON:068:1,2017-04-01T14:24:00Z,27.2970,-97.4049,0.0,7.8,-9999.0,10.8,'11111222,99999999,11111222' 
TCOON,ioos:station:TCOON:068:1,2017-04-01T14:30:00Z,27.2970,-97.4049,0.0,7.9,-9999.0,10.4,'11111222,99999999,11111222' 
TCOON,ioos:station:TCOON:068:1,2017-04-01T14:36:00Z,27.2970,-97.4049,0.0,8.0,-9999.0,10.0,'11111222,99999999,11111222' 
TCOON,ioos:station:TCOON:068:1,2017-04-01T14:42:00Z,27.2970,-97.4049,0.0,8.4,-9999.0,10.8,'11111222,99999999,11111222' 
TCOON,ioos:station:TCOON:068:1,2017-04-01T14:48:00Z,27.2970,-97.4049,0.0,8.9,-9999.0,11.4,'11111222,99999999,11111222' 
TCOON,ioos:station:TCOON:068:1,2017-04-01T14:54:00Z,27.2970,-97.4049,0.0,7.5,-9999.0,10.1,'11111222,99999999,11111222' 
TCOON,ioos:station:TCOON:068:1,2017-04-01T15:00:00Z,27.2970,-97.4049,0.0,8.3,-9999.0,10.2,'11111222,99999999,11111222' 
TCOON,ioos:station:TCOON:068:1,2017-04-01T15:06:00Z,27.2970,-97.4049,0.0,8.5,-9999.0,10.0,'11111222,99999999,11111222' 
TCOON,ioos:station:TCOON:068:1,2017-04-01T15:12:00Z,27.2970,-97.4049,0.0,7.9,-9999.0,11.2,'11111222,99999999,11111222' 
TCOON,ioos:station:TCOON:068:1,2017-04-01T15:18:00Z,27.2970,-97.4049,0.0,7.9,100.0,11.2,'1111122,1111122,1111122' 
TCOON,ioos:station:TCOON:068:1,2017-04-01T15:24:00Z,27.2970,-97.4049,0.0,8.4,-9999.0,10.2,'11111222,99999999,11111222' 
TCOON,ioos:station:TCOON:068:1,2017-04-01T15:30:00Z,27.2970,-97.4049,0.0,8.2,-9999.0,10.9,'11111222,99999999,11111222' 
TCOON,ioos:station:TCOON:068:1,2017-04-01T15:36:00Z,27.2970,-97.4049,0.0,8.1,-9999.0,10.7,'11111222,99999999,11111222' 
TCOON,ioos:station:TCOON:068:1,2017-04-01T15:42:00Z,27.2970,-97.4049,0.0,8.5,-9999.0,11.1,'11111222,99999999,11111222' 
TCOON,ioos:station:TCOON:068:1,2017-04-01T15:48:00Z,27.2970,-97.4049,0.0,8.9,-9999.0,11.4,'11111222,99999999,11111222' 
TCOON,ioos:station:TCOON:068:1,2017-04-01T15:54:00Z,27.2970,-97.4049,0.0,8.2,-9999.0,11.3,'11111222,99999999,11111222' 
TCOON,ioos:station:TCOON:068:1,2017-04-01T16:00:00Z,27.2970,-97.4049,0.0,9.2,-9999.0,10.7,'11111222,99999999,11111222' 
TCOON,ioos:station:TCOON:068:1,2017-04-01T16:06:00Z,27.2970,-97.4049,0.0,9.0,-9999.0,11.2,'11111222,99999999,11111222' 
TCOON,ioos:station:TCOON:068:1,2017-04-01T16:12:00Z,27.2970,-97.4049,0.0,8.9,-9999.0,11.3,'11111222,99999999,11111222' 
TCOON,ioos:station:TCOON:068:1,2017-04-01T16:18:00Z,27.2970,-97.4049,0.0,8.9,103.0,11.3,'1111122,1111122,1111122' 
TCOON,ioos:station:TCOON:068:1,2017-04-01T16:24:00Z,27.2970,-97.4049,0.0,8.7,-9999.0,12.1,'11111222,99999999,11111222' 
TCOON,ioos:station:TCOON:068:1,2017-04-01T16:30:00Z,27.2970,-97.4049,0.0,9.3,-9999.0,11.6,'11111222,99999999,11111222' 
TCOON,ioos:station:TCOON:068:1,2017-04-01T16:36:00Z,27.2970,-97.4049,0.0,9.1,-9999.0,11.3,'11111222,99999999,11111222' 
TCOON,ioos:station:TCOON:068:1,2017-04-01T16:42:00Z,27.2970,-97.4049,0.0,8.8,-9999.0,11.4,'11111222,99999999,11111222' 
TCOON,ioos:station:TCOON:068:1,2017-04-01T16:48:00Z,27.2970,-97.4049,0.0,8.6,-9999.0,12.0,'11111222,99999999,11111222' 
TCOON,ioos:station:TCOON:068:1,2017-04-01T16:54:00Z,27.2970,-97.4049,0.0,8.5,-9999.0,12.3,'11111222,99999999,11111222' 
TCOON,ioos:station:TCOON:068:1,2017-04-01T17:00:00Z,27.2970,-97.4049,0.0,8.7,-9999.0,11.2,'11111222,99999999,11111222' 
TCOON,ioos:station:TCOON:068:1,2017-04-01T17:06:00Z,27.2970,-97.4049,0.0,9.0,-9999.0,11.6,'11111222,99999999,11111222' 
TCOON,ioos:station:TCOON:068:1,2017-04-01T17:12:00Z,27.2970,-97.4049,0.0,9.0,-9999.0,11.8,'11111222,99999999,11111222' 
TCOON,ioos:station:TCOON:068:1,2017-04-01T17:18:00Z,27.2970,-97.4049,0.0,9.0,98.0,11.8,'1111122,1111122,1111122' 
TCOON,ioos:station:TCOON:068:1,2017-04-01T17:24:00Z,27.2970,-97.4049,0.0,8.7,-9999.0,11.1,'11111222,99999999,11111222' 
TCOON,ioos:station:TCOON:068:1,2017-04-01T17:30:00Z,27.2970,-97.4049,0.0,8.1,-9999.0,11.4,'11111222,99999999,11111222' 
TCOON,ioos:station:TCOON:068:1,2017-04-01T17:36:00Z,27.2970,-97.4049,0.0,8.2,-9999.0,11.4,'11111222,99999999,11111222' 
TCOON,ioos:station:TCOON:068:1,2017-04-01T17:42:00Z,27.2970,-97.4049,0.0,9.0,-9999.0,12.9,'11111222,99999999,11111222' 
TCOON,ioos:station:TCOON:068:1,2017-04-01T17:48:00Z,27.2970,-97.4049,0.0,9.0,-9999.0,12.2,'11111222,99999999,11111222' 
TCOON,ioos:station:TCOON:068:1,2017-04-01T17:54:00Z,27.2970,-97.4049,0.0,8.1,-9999.0,11.3,'11111222,99999999,11111222' 
TCOON,ioos:station:TCOON:068:1,2017-04-01T18:00:00Z,27.2970,-97.4049,0.0,7.9,-9999.0,11.5,'11111222,99999999,11111222' 
TCOON,ioos:station:TCOON:068:1,2017-04-01T18:06:00Z,27.2970,-97.4049,0.0,7.9,-9999.0,10.9,'11111222,99999999,11111222' 
TCOON,ioos:station:TCOON:068:1,2017-04-01T18:12:00Z,27.2970,-97.4049,0.0,7.5,-9999.0,11.5,'11111222,99999999,11111222' 
TCOON,ioos:station:TCOON:068:1,2017-04-01T18:18:00Z,27.2970,-97.4049,0.0,8.0,-9999.0,10.1,'11111222,99999999,11111222' 
TCOON,ioos:station:TCOON:068:1,2017-04-01T18:24:00Z,27.2970,-97.4049,0.0,8.0,87.0,10.1,'1111122,1111122,1111122' 
TCOON,ioos:station:TCOON:068:1,2017-04-01T18:30:00Z,27.2970,-97.4049,0.0,8.4,-9999.0,12.4,'11111222,99999999,11111222' 
TCOON,ioos:station:TCOON:068:1,2017-04-01T18:36:00Z,27.2970,-97.4049,0.0,8.3,-9999.0,10.6,'11111222,99999999,11111222' 
TCOON,ioos:station:TCOON:068:1,2017-04-01T18:42:00Z,27.2970,-97.4049,0.0,8.6,-9999.0,10.6,'11111222,99999999,11111222' 
TCOON,ioos:station:TCOON:068:1,2017-04-01T18:48:00Z,27.2970,-97.4049,0.0,8.5,-9999.0,10.4,'11111222,99999999,11111222' 
TCOON,ioos:station:TCOON:068:1,2017-04-01T18:54:00Z,27.2970,-97.4049,0.0,8.6,-9999.0,11.3,'11111222,99999999,11111222' 
TCOON,ioos:station:TCOON:068:1,2017-04-01T19:00:00Z,27.2970,-97.4049,0.0,9.1,-9999.0,12.0,'11111222,99999999,11111222' 
TCOON,ioos:station:TCOON:068:1,2017-04-01T19:06:00Z,27.2970,-97.4049,0.0,9.0,-9999.0,11.4,'11111222,99999999,11111222' 
TCOON,ioos:station:TCOON:068:1,2017-04-01T19:12:00Z,27.2970,-97.4049,0.0,8.7,-9999.0,11.3,'11111222,99999999,11111222' 
TCOON,ioos:station:TCOON:068:1,2017-04-01T19:18:00Z,27.2970,-97.4049,0.0,8.7,83.0,11.3,'1111122,1111122,1111122' 
TCOON,ioos:station:TCOON:068:1,2017-04-01T19:24:00Z,27.2970,-97.4049,0.0,8.4,-9999.0,10.6,'11111222,99999999,11111222' 
TCOON,ioos:station:TCOON:068:1,2017-04-01T19:30:00Z,27.2970,-97.4049,0.0,8.6,-9999.0,11.1,'11111222,99999999,11111222' 
TCOON,ioos:station:TCOON:068:1,2017-04-01T19:36:00Z,27.2970,-97.4049,0.0,8.8,-9999.0,10.9,'11111222,99999999,11111222' 
TCOON,ioos:station:TCOON:068:1,2017-04-01T19:42:00Z,27.2970,-97.4049,0.0,8.8,-9999.0,11.0,'11111222,99999999,11111222' 
TCOON,ioos:station:TCOON:068:1,2017-04-01T19:48:00Z,27.2970,-97.4049,0.0,9.9,-9999.0,11.6,'11111222,99999999,11111222' 
TCOON,ioos:station:TCOON:068:1,2017-04-01T19:54:00Z,27.2970,-97.4049,0.0,9.6,-9999.0,11.8,'11111222,99999999,11111222' 